Flag for Jersey Weather past 2 weeks in Saint Helier, Jersey

Now
66 °F

Partly sunny.


Feels Like: 66 °F
Forecast: 61 / 65 °F
Wind: 6 mph from East

Location: Jersey Airport

Current Time: Aug 30, 2015 at 11:01:05 AM

Latest Report: Aug 30, 2015 at 10:20 AM


Visibility: 4 mi

Pressure: 30.01 "Hg

Humidity: 88%

Dew point: 63 °F

Location of Saint HelierLocation

Historic Weather in Saint Helier — Graph

°F

Saint Helier temperature yesterday

Maximum temperature yesterday: 70 °F (at 1:20 PM)
Minimum temperature yesterday: 59 °F (at 3:50 AM)
Average temperature yesterday: 63 °F

Past Weeks' High & Low Weather Summary

 TemperatureHumidityPressure
High77 °F (Aug 21, 4:50 PM)100% (Aug 18, 6:50 AM)30.18 "Hg (Aug 18, 6:50 AM)
Low50 °F (Aug 16, 5:20 AM)54% (Aug 21, 4:50 PM)29.33 "Hg (Aug 24, 6:50 AM)
Average62 °F84%29.93 "Hg
* Reported Aug 15 9:20 AM — Aug 30 9:50 AM, Saint Helier, Weather by CustomWeather, © 2015

Note: Actual official high and low records may vary slightly from our data, if they occured in-between our weather recording intervals... More about our weather records

Advertising

Saint Helier weather history for previous 24 hours

 ConditionsComfort  
Time TempWeatherWind HumidityBarometerVisibility
9:50 AM
Sun, Aug 30
66 °FPassing clouds.7 mph88%30.01 "Hg4 mi
9:20 AM64 °FSleet. Passing clouds.9 mph88%30.01 "HgN/A
8:50 AM64 °FSleet. Passing clouds.9 mph88%30.01 "HgN/A
8:20 AM64 °FScattered clouds.7 mph88%30.01 "HgN/A
7:50 AM63 °FPassing clouds.5 mph94%30.01 "HgN/A
7:20 AM63 °FPassing clouds.5 mph94%30.01 "HgN/A
6:50 AM61 °FPassing clouds.7 mph94%30.01 "HgN/A
6:20 AM61 °FPassing clouds.8 mph94%30.01 "HgN/A
5:50 AM61 °FPassing clouds.3 mph94%30.01 "HgN/A
4:50 AM61 °FClear.14 mph94%30.01 "Hg10 mi
4:20 AM61 °FClear.10 mph94%30.01 "Hg10 mi
3:50 AM61 °FClear.10 mph94%30.01 "Hg10 mi
9:50 PM
Sat, Aug 29
61 °FClear.9 mph94%30.04 "Hg10 mi
9:20 PM61 °FPassing clouds.16 mph94%30.04 "HgN/A
8:50 PM61 °FPassing clouds.10 mph94%30.04 "HgN/A
8:20 PM61 °FPassing clouds.16 mph94%30.04 "HgN/A
7:50 PM61 °FPassing clouds.15 mph94%30.04 "HgN/A
7:20 PM61 °FScattered clouds.20 mph94%30.04 "HgN/A
6:50 PM61 °FBroken clouds.16 mph94%30.04 "HgN/A
6:20 PM61 °FScattered clouds.20 mph94%30.04 "HgN/A
5:50 PM63 °FScattered clouds.17 mph88%30.04 "HgN/A
5:20 PM63 °FPassing clouds.15 mph94%30.04 "HgN/A
4:50 PM64 °FScattered clouds.16 mph88%30.04 "HgN/A
4:20 PM64 °FScattered clouds.16 mph88%30.04 "HgN/A
3:50 PM66 °FScattered clouds.18 mph83%30.04 "HgN/A
3:20 PM66 °FPartly sunny.10 mph78%30.07 "HgN/A
2:50 PM66 °FPartly sunny.13 mph83%30.07 "HgN/A
2:20 PM68 °FPartly sunny.8 mph78%30.07 "HgN/A
1:50 PM70 °FPassing clouds.7 mph69%30.07 "HgN/A
1:20 PM70 °FPassing clouds.5 mph73%30.07 "HgN/A
12:50 PM68 °FPassing clouds.5 mph73%30.07 "HgN/A
12:20 PM68 °FPassing clouds.3 mph69%30.07 "HgN/A
11:50 AM68 °FPassing clouds.2 mph73%30.09 "HgN/A
11:20 AM66 °FPassing clouds.8 mph78%30.09 "HgN/A
Weather by CustomWeather, © 2015

See weather overviewHow to use our weather pages